This is the latest recevied weather packets stored in our database for station/object K2CAT. If no packets are shown the sender has not sent any weather packets the latest 10 day(s).
| Time | Temp. | Humidity | Pressure | Rain* | Wind** | Luminosity | Snow |
|---|---|---|---|---|---|---|---|
| 1777347974 | 10.56° C | 77% | 1023.9 hPa | 0 mm | - | 0 W/m² | - |
| 1777347672 | 10.56° C | 77% | 1024 hPa | 0 mm | - | 0 W/m² | - |
| 1777347368 | 11.11° C | 76% | 1024.1 hPa | 0 mm | - | 0 W/m² | - |
| 1777347064 | 11.11° C | 75% | 1024.3 hPa | 0 mm | - | 0 W/m² | - |
| 1777346760 | 11.11° C | 75% | 1024.2 hPa | 0 mm | - | 0 W/m² | - |
| 1777346456 | 11.11° C | 74% | 1024.2 hPa | 0 mm | - | 0 W/m² | - |
| 1777346153 | 11.67° C | 72% | 1024 hPa | 0 mm | - | 0 W/m² | - |
| 1777345850 | 11.67° C | 71% | 1024 hPa | 0 mm | - | 0 W/m² | - |
| 1777345548 | 11.67° C | 71% | 1024 hPa | 0 mm | - | 0 W/m² | - |
| 1777345245 | 11.67° C | 72% | 1023.7 hPa | 0 mm | - | 0 W/m² | - |
| 1777344941 | 11.67° C | 72% | 1024 hPa | 0 mm | - | 0 W/m² | - |
| 1777344637 | 12.22° C | 70% | 1023.9 hPa | 0 mm | - | 0 W/m² | - |
| 1777344334 | 12.22° C | 68% | 1023.9 hPa | 0 mm | - | 0 W/m² | - |
| 1777344032 | 12.22° C | 67% | 1023.8 hPa | 0 mm | - | 0 W/m² | - |
| 1777343728 | 12.78° C | 67% | 1023.7 hPa | 0 mm | - | 0 W/m² | - |
| 1777343426 | 12.78° C | 66% | 1023.7 hPa | 0 mm | - | 0 W/m² | - |
| 1777343124 | 12.78° C | 65% | 1023.5 hPa | 0 mm | - | 0 W/m² | - |
| 1777342821 | 13.33° C | 65% | 1023.5 hPa | 0 mm | - | 0 W/m² | - |
| 1777342518 | 13.33° C | 64% | 1023.5 hPa | 0 mm | - | 0 W/m² | - |
| 1777342215 | 13.33° C | 64% | 1023.4 hPa | 0 mm | - | 0 W/m² | - |
| 1777341911 | 13.89° C | 63% | 1023.4 hPa | 0 mm | - | 0 W/m² | - |
| 1777341608 | 13.89° C | 63% | 1023.2 hPa | 0 mm | - | 0 W/m² | - |
| 1777341303 | 14.44° C | 61% | 1023.4 hPa | 0 mm | - | 0 W/m² | - |
| 1777341000 | 15° C | 56% | 1023.3 hPa | 0 mm | - | 0 W/m² | - |
| 1777340698 | 15° C | 52% | 1023.2 hPa | 0 mm | - | 0 W/m² | - |
* Rain latest hour (hover to see other rain measurements)
** Current wind speed in m/s (hover to see current wind gust speed)